| time (UTC) | temp C | wind direction | speed KPH | gust KPH | rain 1hr cm | rain 24hr cm | rain mn cm | humidity % | barometer mb |
| 20260502233006 | 10 | 4 | 0.0 | 3.2 | 319.76 | 0.00 | 0.41 | 93 | 1010.8 |
| 20260502232505 | 10 | 325 | 1.6 | 1.6 | 319.76 | 0.00 | 0.41 | 92 | 1010.8 |
| 20260502232005 | 10 | 0 | 0.0 | 0.0 | 319.76 | 0.00 | 0.41 | 93 | 1010.7 |
| 20260502231506 | 10 | 0 | 0.0 | 0.0 | 319.76 | 0.00 | 0.41 | 92 | 1010.7 |
| 20260502231005 | 10 | 0 | 0.0 | 0.0 | 319.76 | 0.00 | 0.41 | 92 | 1010.7 |
| 20260502230505 | 10 | 0 | 0.0 | 0.0 | 319.76 | 0.00 | 0.41 | 92 | 1010.5 |
| 20260502230006 | 10 | 0 | 0.0 | 0.0 | 319.76 | 0.00 | 0.41 | 92 | 1010.5 |
| 20260502225505 | 10 | 0 | 0.0 | 0.0 | 319.76 | 0.00 | 0.41 | 92 | 1010.4 |
| 20260502224506 | 10 | 0 | 0.0 | 0.0 | 319.76 | 0.00 | 0.41 | 93 | 1010.3 |
| 20260502224006 | 10 | 0 | 0.0 | 0.0 | 319.76 | 0.00 | 0.41 | 93 | 1010.4 |
| 20260502223505 | 10 | 330 | 0.0 | 0.0 | 319.76 | 0.00 | 0.41 | 94 | 1010.2 |
| 20260502223007 | 10 | 0 | 0.0 | 0.0 | 319.76 | 0.00 | 0.41 | 93 | 1010.2 |
| 20260502221508 | 10 | 0 | 0.0 | 0.0 | 319.76 | 0.00 | 0.41 | 92 | 1010.2 |
| 20260502220508 | 10 | 284 | 1.6 | 1.6 | 319.76 | 0.00 | 0.41 | 94 | 1010.2 |
| 20260502220006 | 10 | 62 | 0.0 | 1.6 | 319.76 | 0.00 | 0.41 | 94 | 1010.2 |
| 20260502215506 | 10 | 0 | 0.0 | 0.0 | 319.76 | 0.00 | 0.41 | 94 | 1010.1 |
| 20260502215006 | 10 | 0 | 0.0 | 0.0 | 319.76 | 0.00 | 0.41 | 94 | 1010.0 |
| 20260502214514 | 10 | 134 | 0.0 | 1.6 | 319.76 | 0.00 | 0.41 | 94 | 1010.1 |
| 20260502214009 | 10 | 187 | 0.0 | 4.8 | 319.76 | 0.00 | 0.41 | 93 | 1010.2 |
| 20260502213505 | 10 | 208 | 3.2 | 3.2 | 319.76 | 0.00 | 0.41 | 93 | 1010.3 |
| 20260502213006 | 9 | 0 | 0.0 | 0.0 | 319.76 | 0.00 | 0.41 | 92 | 1010.3 |
| 20260502211005 | 9 | 188 | 0.0 | 9.7 | 319.74 | 0.00 | 0.38 | 92 | 1010.4 |
| 20260502210507 | 9 | 195 | 3.2 | 9.7 | 319.74 | 0.00 | 0.38 | 92 | 1010.4 |
| 20260502210016 | 9 | 145 | 4.8 | 6.4 | 319.74 | 0.00 | 0.38 | 92 | 1010.5 |
| 20260502205505 | 9 | 218 | 0.0 | 4.8 | 319.71 | 0.00 | 0.36 | 92 | 1010.5 |
| 20260502205005 | 9 | 0 | 1.6 | 0.0 | 319.71 | 0.00 | 0.36 | 91 | 1010.4 |
| 20260502204509 | 9 | 0 | 0.0 | 0.0 | 319.71 | 0.00 | 0.36 | 91 | 1010.3 |
| 20260502204005 | 9 | 0 | 0.0 | 0.0 | 319.71 | 0.00 | 0.36 | 91 | 1010.3 |
| 20260502203012 | 9 | 0 | 0.0 | 0.0 | 319.71 | 0.00 | 0.36 | 91 | 1010.3 |
| 20260502202513 | 9 | 301 | 0.0 | 3.2 | 319.71 | 0.00 | 0.36 | 90 | 1010.3 |
| 20260502202005 | 9 | 301 | 1.6 | 3.2 | 319.71 | 0.00 | 0.36 | 91 | 1010.2 |
| 20260502201507 | 9 | 283 | 0.0 | 4.8 | 319.71 | 0.00 | 0.36 | 89 | 1010.2 |
| 20260502201005 | 9 | 293 | 3.2 | 9.7 | 319.71 | 0.00 | 0.36 | 90 | 1010.3 |
| 20260502200506 | 9 | 264 | 4.8 | 6.4 | 319.71 | 0.00 | 0.36 | 89 | 1010.3 |
| 20260502200005 | 10 | 274 | 3.2 | 4.8 | 319.71 | 0.00 | 0.36 | 88 | 1010.4 |
| 20260502195505 | 10 | 287 | 1.6 | 8.0 | 319.71 | 0.00 | 0.36 | 88 | 1010.4 |
| 20260502195005 | 10 | 298 | 0.0 | 11.3 | 319.71 | 0.00 | 0.36 | 87 | 1010.4 |
| 20260502194505 | 10 | 266 | 4.8 | 9.7 | 319.71 | 0.00 | 0.36 | 86 | 1010.5 |
| 20260502194005 | 10 | 271 | 3.2 | 12.9 | 319.71 | 0.00 | 0.36 | 85 | 1010.5 |
| 20260502193505 | 10 | 293 | 8.0 | 16.1 | 319.68 | 0.00 | 0.33 | 84 | 1010.6 |
| 20260502193005 | 10 | 311 | 3.2 | 11.3 | 319.68 | 0.00 | 0.33 | 82 | 1010.6 |
| 20260502192505 | 10 | 277 | 4.8 | 14.5 | 319.68 | 0.00 | 0.33 | 82 | 1010.7 |
| 20260502192005 | 10 | 264 | 9.7 | 11.3 | 319.68 | 0.00 | 0.33 | 81 | 1010.8 |
| 20260502191505 | 10 | 284 | 4.8 | 11.3 | 319.68 | 0.00 | 0.33 | 82 | 1010.7 |
| 20260502191005 | 11 | 285 | 8.0 | 12.9 | 319.68 | 0.00 | 0.33 | 81 | 1010.6 |
| 20260502190505 | 11 | 271 | 11.3 | 12.9 | 319.68 | 0.00 | 0.33 | 79 | 1010.6 |
| 20260502190005 | 11 | 270 | 8.0 | 12.9 | 319.68 | 0.00 | 0.33 | 77 | 1010.6 |
| 20260502185505 | 12 | 18 | 8.0 | 11.3 | 319.68 | 0.00 | 0.33 | 73 | 1010.6 |
| 20260502185005 | 13 | 217 | 1.6 | 16.1 | 319.68 | 0.00 | 0.33 | 68 | 1010.5 |
| 20260502184505 | 13 | 307 | 11.3 | 14.5 | 319.68 | 0.00 | 0.33 | 61 | 1010.5 |
| 20260502184005 | 13 | 198 | 4.8 | 17.7 | 319.68 | 0.00 | 0.33 | 62 | 1010.6 |
| 20260502183505 | 14 | 184 | 9.7 | 12.9 | 319.68 | 0.00 | 0.33 | 61 | 1010.6 |
| 20260502183005 | 14 | 139 | 9.7 | 9.7 | 319.68 | 0.00 | 0.33 | 62 | 1010.6 |
| 20260502182505 | 14 | 170 | 4.8 | 12.9 | 319.68 | 0.00 | 0.33 | 61 | 1010.6 |
| 20260502182005 | 14 | 169 | 9.7 | 17.7 | 319.68 | 0.00 | 0.33 | 61 | 1010.7 |
| 20260502181505 | 14 | 222 | 8.0 | 20.9 | 319.68 | 0.00 | 0.33 | 62 | 1010.7 |
| 20260502181005 | 13 | 205 | 11.3 | 32.2 | 319.68 | 0.00 | 0.33 | 63 | 1010.7 |
| 20260502180505 | 13 | 159 | 17.7 | 32.2 | 319.68 | 0.00 | 0.33 | 61 | 1010.8 |
| 20260502170505 | 12 | 190 | 9.7 | 16.1 | 319.68 | 0.00 | 0.33 | 78 | 1011.0 |
| 20260502164005 | 11 | 204 | 3.2 | 9.7 | 319.68 | 0.00 | 0.33 | 83 | 1011.3 |
| 20260502163505 | 11 | 143 | 1.6 | 4.8 | 319.68 | 0.00 | 0.33 | 85 | 1011.2 |
| 20260502163005 | 11 | 127 | 0.0 | 9.7 | 319.68 | 0.00 | 0.33 | 85 | 1011.3 |
| 20260502162505 | 11 | 162 | 6.4 | 9.7 | 319.68 | 0.00 | 0.33 | 84 | 1011.4 |
| 20260502162005 | 11 | 132 | 3.2 | 6.4 | 319.68 | 0.00 | 0.33 | 85 | 1011.6 |
| 20260502161505 | 11 | 134 | 3.2 | 9.7 | 319.68 | 0.00 | 0.33 | 84 | 1011.7 |
| 20260502161004 | 11 | 167 | 3.2 | 12.9 | 319.68 | 0.00 | 0.33 | 84 | 1012.0 |
| 20260502160504 | 11 | 188 | 3.2 | 12.9 | 319.68 | 0.00 | 0.33 | 82 | 1011.9 |
| 20260502152004 | 10 | 288 | 0.0 | 3.2 | 319.68 | 0.00 | 0.33 | 87 | 1011.9 |
| 20260502151505 | 10 | 218 | 1.6 | 3.2 | 319.68 | 0.00 | 0.33 | 86 | 1011.9 |
| 20260502150504 | 10 | 153 | 3.2 | 6.4 | 319.68 | 0.00 | 0.33 | 85 | 1012.1 |
| 20260502123005 | 7 | 0 | 0.0 | 0.0 | 319.66 | 0.00 | 0.30 | 96 | 1013.0 |
| 20260502122505 | 7 | 0 | 0.0 | 0.0 | 319.66 | 0.00 | 0.30 | 96 | 1012.9 |
| 20260502121506 | 7 | 0 | 0.0 | 0.0 | 319.63 | 0.00 | 0.28 | 96 | 1013.0 |
| 20260502120504 | 7 | 94 | 3.2 | 3.2 | 319.61 | 0.00 | 0.25 | 97 | 1012.8 |
| 20260502115504 | 7 | 0 | 0.0 | 0.0 | 319.61 | 0.00 | 0.25 | 97 | 1012.8 |
| 20260502114505 | 7 | 28 | 0.0 | 3.2 | 319.58 | 0.00 | 0.23 | 97 | 1012.8 |
| 20260502114005 | 7 | 0 | 0.0 | 0.0 | 319.58 | 0.00 | 0.23 | 97 | 1012.9 |
| 20260502113504 | 7 | 0 | 0.0 | 0.0 | 319.56 | 0.00 | 0.20 | 97 | 1013.2 |
| 20260502113005 | 7 | 0 | 0.0 | 0.0 | 319.51 | 0.00 | 0.15 | 97 | 1013.4 |
| 20260502112504 | 7 | 201 | 0.0 | 1.6 | 319.48 | 0.00 | 0.13 | 97 | 1013.4 |
| 20260502112005 | 7 | 253 | 0.0 | 4.8 | 319.46 | 0.00 | 0.10 | 97 | 1013.2 |
| 20260502111506 | 7 | 259 | 3.2 | 3.2 | 319.43 | 0.00 | 0.08 | 97 | 1012.9 |
| 20260502111005 | 7 | 0 | 0.0 | 0.0 | 319.43 | 0.00 | 0.08 | 97 | 1012.5 |
| 20260502110504 | 7 | 0 | 0.0 | 0.0 | 319.43 | 0.00 | 0.08 | 96 | 1012.3 |
| 20260502105504 | 7 | 274 | 1.6 | 4.8 | 319.43 | 0.00 | 0.08 | 96 | 1012.1 |
| 20260502104505 | 7 | 278 | 1.6 | 1.6 | 319.43 | 0.00 | 0.08 | 96 | 1011.8 |
| 20260502104004 | 7 | 288 | 1.6 | 4.8 | 319.43 | 0.00 | 0.08 | 96 | 1011.8 |
| 20260502103504 | 7 | 0 | 0.0 | 0.0 | 319.43 | 0.00 | 0.08 | 96 | 1011.8 |
| 20260502103006 | 7 | 0 | 0.0 | 0.0 | 319.43 | 0.00 | 0.08 | 96 | 1011.8 |
| 20260502102504 | 7 | 332 | 0.0 | 3.2 | 319.43 | 0.00 | 0.08 | 95 | 1011.9 |
| 20260502102006 | 7 | 322 | 1.6 | 3.2 | 319.41 | 0.00 | 0.05 | 95 | 1011.9 |
| 20260502101505 | 7 | 0 | 0.0 | 0.0 | 319.41 | 0.00 | 0.05 | 94 | 1011.8 |
| 20260502091504 | 7 | 0 | 0.0 | 0.0 | 319.38 | 0.00 | 0.03 | 88 | 1011.3 |
| 20260502091004 | 7 | 0 | 0.0 | 0.0 | 319.38 | 0.00 | 0.03 | 88 | 1011.2 |
| 20260502071504 | 8 | 77 | 0.0 | 1.6 | 319.35 | 0.00 | 0.00 | 75 | 1011.6 |
| 20260502071005 | 8 | 122 | 0.0 | 4.8 | 319.35 | 0.00 | 0.00 | 75 | 1011.7 |
| 20260502070504 | 8 | 174 | 1.6 | 4.8 | 319.35 | 0.00 | 0.00 | 75 | 1011.8 |
| 20260502070006 | 8 | 274 | 1.6 | 3.2 | 319.35 | 0.00 | 0.00 | 74 | 1011.8 |
| 20260502065504 | 7 | 285 | 1.6 | 6.4 | 319.35 | 0.00 | 0.00 | 73 | 1011.9 |
| 20260502065004 | 7 | 288 | 4.8 | 6.4 | 319.35 | 0.00 | 0.00 | 74 | 1011.9 |
| 20260502064507 | 7 | 271 | 4.8 | 9.7 | 319.35 | 0.00 | 0.00 | 79 | 1012.0 |
| 20260502063505 | 7 | 253 | 6.4 | 8.0 | 319.35 | 0.00 | 0.00 | 81 | 1011.9 |
| 20260502063008 | 7 | 354 | 3.2 | 6.4 | 319.35 | 0.00 | 0.00 | 80 | 1011.8 |
| 20260502062504 | 7 | 271 | 3.2 | 6.4 | 319.35 | 0.00 | 0.00 | 80 | 1011.9 |
| 20260502061504 | 7 | 287 | 0.0 | 3.2 | 319.35 | 0.00 | 0.00 | 80 | 1011.7 |
| 20260502061004 | 7 | 283 | 1.6 | 6.4 | 319.35 | 0.00 | 0.00 | 80 | 1011.6 |
| 20260502060504 | 7 | 318 | 4.8 | 6.4 | 319.35 | 0.00 | 0.00 | 80 | 1011.6 |
| 20260502060007 | 7 | 311 | 4.8 | 6.4 | 319.35 | 0.00 | 0.00 | 82 | 1011.7 |
| 20260502055504 | 7 | 263 | 4.8 | 6.4 | 319.35 | 0.00 | 0.00 | 81 | 1011.8 |
| 20260502055004 | 7 | 273 | 4.8 | 6.4 | 319.35 | 0.00 | 0.00 | 81 | 1012.0 |
| 20260502054504 | 7 | 274 | 4.8 | 6.4 | 319.35 | 0.00 | 0.00 | 81 | 1012.0 |
| 20260502054004 | 7 | 269 | 4.8 | 4.8 | 319.35 | 0.00 | 0.00 | 81 | 1011.9 |
| 20260502053503 | 7 | 274 | 1.6 | 4.8 | 319.35 | 0.00 | 0.00 | 80 | 1011.9 |
| 20260502053007 | 7 | 0 | 0.0 | 0.0 | 319.35 | 0.00 | 0.00 | 80 | 1011.8 |
| 20260502052503 | 7 | 0 | 0.0 | 0.0 | 319.35 | 0.00 | 0.00 | 81 | 1011.9 |
| 20260502051504 | 7 | 0 | 0.0 | 0.0 | 319.35 | 0.00 | 0.00 | 79 | 1011.9 |
| 20260502050504 | 7 | 0 | 0.0 | 0.0 | 319.35 | 0.00 | 0.00 | 79 | 1012.0 |
| 20260502050005 | 7 | 0 | 0.0 | 0.0 | 319.35 | 0.00 | 0.00 | 78 | 1011.9 |
| 20260502045503 | 7 | 0 | 0.0 | 0.0 | 319.35 | 0.00 | 0.00 | 77 | 1011.9 |
| 20260502044504 | 7 | 0 | 0.0 | 0.0 | 319.35 | 0.00 | 0.00 | 75 | 1011.8 |
| 20260502044004 | 7 | 0 | 0.0 | 0.0 | 319.35 | 0.00 | 0.00 | 76 | 1011.9 |
| 20260502043503 | 7 | 0 | 0.0 | 0.0 | 319.35 | 0.00 | 0.00 | 75 | 1012.0 |
| 20260502043006 | 7 | 0 | 0.0 | 0.0 | 319.35 | 0.00 | 0.00 | 76 | 1012.0 |
| 20260502042503 | 7 | 0 | 0.0 | 0.0 | 319.35 | 0.00 | 0.00 | 76 | 1012.1 |
| 20260502041504 | 7 | 0 | 0.0 | 0.0 | 319.35 | 0.00 | 0.00 | 77 | 1012.0 |
| 20260502040503 | 7 | 0 | 0.0 | 0.0 | 319.35 | 0.00 | 0.00 | 77 | 1012.0 |
| 20260502040004 | 7 | 0 | 0.0 | 0.0 | 319.35 | 0.00 | 0.00 | 76 | 1011.9 |
| 20260502035503 | 7 | 0 | 0.0 | 0.0 | 319.35 | 0.00 | 0.00 | 76 | 1011.9 |
| 20260502035004 | 7 | 0 | 0.0 | 0.0 | 319.35 | 0.00 | 0.00 | 76 | 1011.9 |
| 20260502034505 | 7 | 0 | 0.0 | 0.0 | 319.35 | 0.00 | 0.00 | 76 | 1011.9 |
| 20260502033503 | 7 | 274 | 0.0 | 3.2 | 319.35 | 0.00 | 0.00 | 75 | 1011.9 |
| 20260502033004 | 7 | 0 | 0.0 | 0.0 | 319.35 | 0.00 | 0.00 | 75 | 1011.9 |
| 20260502032003 | 7 | 0 | 0.0 | 0.0 | 319.35 | 0.00 | 0.00 | 76 | 1011.7 |
| 20260502031504 | 7 | 0 | 0.0 | 0.0 | 319.35 | 0.00 | 0.00 | 75 | 1011.7 |
| 20260502030503 | 7 | 291 | 0.0 | 3.2 | 319.35 | 0.00 | 0.00 | 74 | 1011.7 |
| 20260502030004 | 7 | 0 | 0.0 | 0.0 | 319.35 | 0.00 | 0.00 | 74 | 1011.6 |
| 20260502025503 | 7 | 0 | 0.0 | 0.0 | 319.35 | 0.00 | 0.00 | 72 | 1011.7 |
| 20260502025005 | 7 | 0 | 0.0 | 0.0 | 319.35 | 0.00 | 0.00 | 73 | 1011.7 |
| 20260502024538 | 7 | 0 | 0.0 | 0.0 | 319.35 | 0.00 | 0.00 | 72 | 1011.7 |
| 20260502024504 | 7 | 0 | 0.0 | 0.0 | 319.35 | 0.00 | 0.00 | 72 | 1011.7 |
| 20260502023503 | 7 | 243 | 0.0 | 1.6 | 319.35 | 0.00 | 0.00 | 72 | 1011.7 |
| 20260502023005 | 7 | 269 | 1.6 | 3.2 | 319.35 | 0.00 | 0.00 | 73 | 1011.7 |
| 20260502022503 | 7 | 0 | 0.0 | 0.0 | 319.35 | 0.00 | 0.00 | 71 | 1011.7 |
| 20260502021504 | 7 | 269 | 1.6 | 3.2 | 319.35 | 0.00 | 0.00 | 73 | 1011.7 |
| 20260502021003 | 7 | 0 | 0.0 | 0.0 | 319.35 | 0.00 | 0.00 | 71 | 1011.8 |
| 20260502020503 | 7 | 278 | 0.0 | 1.6 | 319.35 | 0.00 | 0.00 | 67 | 1011.8 |
| 20260502020004 | 7 | 263 | 1.6 | 4.8 | 319.35 | 0.00 | 0.00 | 68 | 1011.8 |
| 20260502015503 | 8 | 259 | 4.8 | 6.4 | 319.35 | 0.00 | 0.00 | 68 | 1011.8 |
| 20260502015003 | 8 | 294 | 4.8 | 4.8 | 319.35 | 0.00 | 0.00 | 67 | 1011.8 |
| 20260502014506 | 8 | 290 | 4.8 | 4.8 | 319.35 | 0.00 | 0.00 | 62 | 1011.8 |
| 20260502013503 | 8 | 0 | 0.0 | 0.0 | 319.35 | 0.00 | 0.00 | 59 | 1011.7 |
| 20260502013006 | 8 | 0 | 0.0 | 0.0 | 319.35 | 0.00 | 0.00 | 58 | 1011.7 |
| 20260502012503 | 8 | 0 | 0.0 | 0.0 | 319.35 | 0.00 | 0.00 | 56 | 1011.7 |
| 20260502012003 | 9 | 0 | 0.0 | 0.0 | 319.35 | 0.00 | 0.00 | 55 | 1011.7 |
| 20260502011507 | 9 | 0 | 0.0 | 0.0 | 319.35 | 0.00 | 0.00 | 56 | 1011.6 |
| 20260502010503 | 10 | 0 | 0.0 | 0.0 | 319.35 | 0.00 | 0.00 | 54 | 1011.5 |
| 20260502010005 | 10 | 0 | 0.0 | 0.0 | 319.35 | 0.00 | 0.00 | 54 | 1011.5 |
| 20260502005503 | 10 | 0 | 0.0 | 0.0 | 319.35 | 0.00 | 0.00 | 52 | 1011.4 |
| 20260502005005 | 10 | 0 | 0.0 | 0.0 | 319.35 | 0.00 | 0.00 | 50 | 1011.3 |
| 20260502004504 | 11 | 0 | 0.0 | 0.0 | 319.35 | 0.00 | 0.00 | 51 | 1011.3 |
| 20260502003505 | 11 | 0 | 0.0 | 0.0 | 319.35 | 0.00 | 0.00 | 46 | 1011.2 |
| 20260502003007 | 11 | 281 | 0.0 | 1.6 | 319.35 | 0.00 | 0.00 | 48 | 1011.1 |
| 20260502002503 | 11 | 0 | 0.0 | 0.0 | 319.35 | 0.00 | 0.00 | 47 | 1011.0 |
| 20260502001538 | 12 | 0 | 0.0 | 0.0 | 319.35 | 0.00 | 0.00 | 44 | 1010.9 |
| 20260502001504 | 12 | 0 | 0.0 | 0.0 | 319.35 | 0.00 | 0.00 | 44 | 1010.9 |
| 20260502001003 | 12 | 0 | 0.0 | 0.0 | 319.35 | 0.00 | 0.00 | 43 | 1010.7 |
| 20260502000503 | 12 | 0 | 0.0 | 0.0 | 319.35 | 0.00 | 0.00 | 42 | 1010.7 |
| 20260502000005 | 12 | 0 | 0.0 | 0.0 | 319.35 | 0.00 | 0.00 | 42 | 1010.5 |
| 20260501235503 | 13 | 0 | 0.0 | 0.0 | 319.35 | 0.00 | 0.00 | 42 | 1010.5 |
| 20260501234504 | 13 | 0 | 0.0 | 0.0 | 319.35 | 0.00 | 0.00 | 39 | 1010.5 |
| 20260501234005 | 13 | 0 | 0.0 | 0.0 | 319.35 | 0.00 | 0.00 | 39 | 1010.4 |
| 20260501233503 | 14 | 0 | 0.0 | 0.0 | 319.35 | 0.00 | 0.00 | 39 | 1010.3 |